ESCO2: Skeleton Creek at Enid, OK

Data processed at Sat Mar 10 2018 23:03


All information presented herein is the property of the government of the United States of America and may be revised or deleted at any time without prior notice.
Dissemination of this information without the expressed written consent of the Public Affairs Office, Tulsa District U.S. Army Corps of Engineers is strictly prohibited.
These data are gathered electronically and, as presented, have not undergone any form of quality control. These data are not guaranteed to be valid or correct.
Go to home page.
Go to station list.

Downstream station:


Previous Day
Next Day
Current Day
    
SHEF ID:       ESCO2     Skeleton Creek at Enid, OK
STATION TYPE:  

               PRECIP     STAGE  RIV-FLOW  WTR-TEMP   CONDUCT  BAT-LOAD
                   in        ft       cfs         F   umho/cm      volt
              Ccp-Rev   Ccp-Rev   Ccp-Rev   Ccp-Rev   Ccp-Rev   Ccp-Rev
(US/Central)
03/08 00:00      0.00      2.57         6     42.28      1350     12.81
03/08 01:00      0.00      2.57         6     41.50      1350     12.73
03/08 02:00      0.00      2.57         6     40.87      1351     12.73
03/08 03:00      0.00      2.58         6     40.23      1352     12.65
03/08 04:00      0.00      2.55         5     39.60      1353     12.65
03/08 05:00      0.00      2.56         6     38.91      1354     12.65
03/08 06:00      0.00      2.53         5     38.23      1355     12.57
03/08 07:00      0.00      2.55         5     37.74      1356     12.57
03/08 08:00      0.00      2.53         5     37.62      1357     12.57
03/08 09:00      0.00      2.53         5     38.79      1358     12.73
03/08 10:00      0.00      2.54         5     42.66      1357     13.68
03/08 11:00      0.00      2.56         6     48.29      1356     13.60
03/08 12:00      0.00      2.56         6     53.92      1352     13.53
03/08 13:00      0.00      2.57         6     58.71      1352     13.53
03/08 14:00      0.00      2.59         7     61.57      1350     13.44
03/08 15:00      0.00      2.56         6     63.81      1348     13.44
03/08 16:00      0.00      2.57         6     62.98      1346     13.37
03/08 17:00      0.00      2.56         6     59.77      1344     13.37
03/08 18:00      0.00      2.58         6     54.99      1341     13.37
03/08 19:00      0.00      2.58         6     51.98      1337     13.13
03/08 20:00      0.00      2.58         6     50.11      1336     12.97
03/08 21:00      0.00      2.57         6     48.83      1335     12.89
03/08 22:00      0.00      2.58         6     47.82      1334     12.89
03/08 23:00      0.00      2.58         6     47.26      1335     12.81